NAS Fort Worth JRB, TX

2:30 PM CST on February 19, 2017 (GMT -0600)
Fort Worth Naval Air Station Jrb

Weather History for KNFW - September, 2013

Change the Weather History Date:

Sunday, September 1, 2013

  Actual Average Record
Temperature  
Mean Temperature 94 °F -  
Max Temperature 108 °F 90 °F 108 °F (2013)
Min Temperature 82 °F 71 °F 68 °F (2004)
Cooling Degree Days 29    
Growing Degree Days 44 (Base 50)    
Moisture  
Dew Point 61 °F    
Average Humidity 36    
Maximum Humidity 66    
Minimum Humidity 17    
Precipitation  
Precipitation 0.00 in - - ()
Sea Level Pressure  
Sea Level Pressure 29.84 in    
Wind  
Wind Speed 7 mph (South)    
Max Wind Speed 25 mph    
Max Gust Speed 34 mph    
Visibility 10 miles    
Events Thunderstorm    
Averages and records for this station are not official NWS values.
T = Trace of Precipitation, MM = Missing Value Source: NWS Daily Summary

Daily Weather History Graph

Daily Weather History Graph

Search for Another Location

Airport or City:

Trip Planner

Search our weather history database for the weather conditions in past years. The results will help you decide how hot, cold, wet, or windy it might be!

Date:

Astronomy

Sep. 01, 2013 Rise Set
Actual Time 7:04 AM CDT 7:54 PM CDT
Civil Twilight 6:39 AM CDT 8:19 PM CDT
Nautical Twilight 6:09 AM CDT 8:48 PM CDT
Astronomical Twilight 5:39 AM CDT 9:19 PM CDT
Moon 3:35 AM CDT (9/1) 5:26 PM CDT (9/1)
Length of Visible Light 13h 39m
Length of Day
12h 49m
Waning Crescent, 13% of the Moon is Illuminated
Sep 1
Waning Crescent
Sep 5
New
Sep 12
First Quarter
Sep 19
Full
Sep 26
Last Quarter

Hourly Weather History & Observations

Time (CDT) Temp. Heat Index Dew Point Humidity Pressure Visibility Wind Dir Wind Speed Gust Speed Precip Events Conditions
12:52 AM 90.0 °F 89.1 °F 59.0 °F 35% 29.81 in 10.0 mi South 6.9 mph - N/A   Clear
1:52 AM 88.0 °F 87.9 °F 61.0 °F 40% 29.81 in 10.0 mi South 9.2 mph - N/A   Clear
2:52 AM 87.1 °F 87.5 °F 62.1 °F 43% 29.82 in 10.0 mi South 9.2 mph - N/A   Clear
3:52 AM 86.0 °F 86.3 °F 62.1 °F 44% 29.82 in 10.0 mi South 6.9 mph - N/A   Clear
4:52 AM 84.0 °F 84.5 °F 62.1 °F 47% 29.83 in 10.0 mi South 3.5 mph - N/A   Clear
5:52 AM 82.9 °F 84.0 °F 63.0 °F 51% 29.83 in 10.0 mi South 5.8 mph - N/A   Clear
6:52 AM 82.0 °F 83.1 °F 63.0 °F 52% 29.84 in 10.0 mi South 5.8 mph - N/A   Clear
7:52 AM 82.9 °F 84.4 °F 64.0 °F 53% 29.85 in 10.0 mi South 6.9 mph - N/A   Clear
8:01 AM 84.2 °F 85.6 °F 64.4 °F 51% 29.90 in 10.0 mi South 8.1 mph - N/A   Clear
8:52 AM 88.0 °F 89.3 °F 64.0 °F 45% 29.86 in 10.0 mi South 9.2 mph - N/A   Partly Cloudy
9:52 AM 93.0 °F 94.2 °F 63.0 °F 37% 29.88 in 10.0 mi SW 9.2 mph - N/A   Partly Cloudy
10:52 AM 97.0 °F 97.8 °F 62.1 °F 31% 29.88 in 10.0 mi SW 10.4 mph - N/A   Partly Cloudy
11:52 AM 100.9 °F 102.1 °F 61.0 °F 27% 29.88 in 10.0 mi NNW 5.8 mph - N/A   Partly Cloudy
12:52 PM 102.9 °F 103.0 °F 59.0 °F 23% 29.86 in 10.0 mi NE 5.8 mph - N/A   Scattered Clouds
1:52 PM 105.1 °F 104.4 °F 57.0 °F 20% 29.84 in 10.0 mi NNE 3.5 mph - N/A   Scattered Clouds
2:52 PM 106.0 °F 105.8 °F 57.0 °F 20% 29.82 in 10.0 mi Calm Calm - N/A   Scattered Clouds
3:52 PM 106.0 °F 105.1 °F 55.0 °F 19% 29.79 in 10.0 mi Variable 3.5 mph - N/A   Scattered Clouds
4:52 PM 106.0 °F 104.5 °F 54.0 °F 18% 29.77 in 10.0 mi South 3.5 mph - N/A   Scattered Clouds
5:52 PM 106.0 °F 103.9 °F 53.1 °F 17% 29.76 in 10.0 mi Variable 3.5 mph - N/A   Clear
6:52 PM 104.0 °F 102.9 °F 55.0 °F 20% 29.77 in 10.0 mi SE 5.8 mph - N/A   Clear
7:52 PM 102.0 °F 101.1 °F 57.0 °F 22% 29.78 in 10.0 mi SE 8.1 mph - N/A   Partly Cloudy
8:52 PM 98.1 °F 97.7 °F 59.0 °F 27% 29.80 in 10.0 mi South 5.8 mph - N/A   Clear
9:52 PM 96.1 °F 96.4 °F 61.0 °F 31% 29.82 in 10.0 mi SSW 9.2 mph - N/A   Clear
10:52 PM 91.9 °F 92.9 °F 63.0 °F 38% 29.85 in 10.0 mi SSE 6.9 mph - N/A Thunderstorm Thunderstorm
11:14 PM 91.4 °F 92.1 °F 62.6 °F 38% 29.89 in 10.0 mi South 4.6 mph - N/A   Partly Cloudy
11:34 PM 93.2 °F 94.9 °F 64.4 °F 38% 29.92 in 10.0 mi NNW 10.4 mph - N/A Thunderstorm Thunderstorm
11:52 PM 89.1 °F 92.1 °F 66.9 °F 48% 29.91 in 7.0 mi NE 25.3 mph 34.5 mph N/A Thunderstorm Thunderstorm
11:57 PM 82.4 °F 86.3 °F 69.8 °F 66% 29.97 in 2.5 mi ENE 24.2 mph 34.5 mph 0.01 in Thunderstorm Unknown